Weather History for Tupelo, MS

Change the Weather History Date:

Tuesday, July 23, 2013

  Actual Average Record
Temperature  
Mean Temperature 77 °F 82 °F  
Max Temperature 84 °F 92 °F 104 °F (1934)
Min Temperature 70 °F 71 °F 55 °F (1947)
Degree Days  
Heating Degree Days 0 0  
Month to date heating degree days 0 0  
Since 1 June heating degree days 0 0  
Since 1 July heating degree days 0 0  
Cooling Degree Days 12 17  
Month to date cooling degree days 350 380  
Year to date cooling degree days 1012 1052  
Since 1 June cooling degree days 766 775  
Growing Degree Days 26 (Base 50)    
Moisture  
Dew Point 72 °F    
Average Humidity 81    
Maximum Humidity 97    
Minimum Humidity 65    
Precipitation  
Precipitation 0.68 in 0.12 in 2.55 in (1974)
Month to date precipitation 2.46 2.94  
Year to date precipitation 32.93 32.06  
Snow  
Snow 0.00 in 0.00 in - ()
Month to date snowfall 0.0 0.0  
Since 1 June snowfall 0.0 0.0  
Since 1 July snowfall 0.0 0.0  
Snow Depth 0.00 in    
Sea Level Pressure  
Sea Level Pressure 29.92 in    
Wind  
Wind Speed 4 mph (WSW)    
Max Wind Speed 28 mph    
Max Gust Speed 47 mph    
Visibility 9 miles    
Events Fog , Rain , Thunderstorm    
T = Trace of Precipitation, MM = Missing Value Source: NWS Daily Summary

Daily Weather History Graph

Daily Weather History Graph

Search for Another Location

Airport:

Trip Planner

Search our weather history database for the weather conditions in past years. The results will help you decide how hot, cold, wet, or windy it might be!

Date:

Astronomy

Jul. 23, 2013 Rise Set
Actual Time 5:59 AM CDT 8:03 PM CDT
Civil Twilight 5:31 AM CDT 8:31 PM CDT
Nautical Twilight 4:57 AM CDT 9:05 PM CDT
Astronomical Twilight 4:20 AM CDT 9:41 PM CDT
Moon 8:38 PM CDT (7/23) 7:02 AM CDT (7/23)
Length of Visible Light 14h 59m
Length of Day
14h 03m
Full, 99% of the Moon is Illuminated
Jul 23
Full
Jul 29
Last Quarter
Aug 6
New
Aug 14
First Quarter
Aug 20
Full

Hourly Weather History & Observations

Time (CDT) Temp. Heat Index Dew Point Humidity Pressure Visibility Wind Dir Wind Speed Gust Speed Precip Events Conditions
12:53 AM 75.0 °F - 73.0 °F 94% 29.94 in 10.0 mi SSW 4.6 mph - N/A   Partly Cloudy
1:53 AM 73.9 °F - 72.0 °F 93% 29.94 in 10.0 mi SW 3.5 mph - N/A   Partly Cloudy
2:53 AM 75.0 °F - 73.0 °F 94% 29.93 in 10.0 mi SSW 4.6 mph - N/A Thunderstorm Thunderstorm
3:35 AM 75.2 °F - 73.4 °F 94% 29.94 in 10.0 mi Calm Calm - N/A   Mostly Cloudy
3:44 AM 75.2 °F - 73.4 °F 94% 29.94 in 10.0 mi Calm Calm - N/A Thunderstorm Thunderstorm
3:53 AM 75.0 °F - 73.0 °F 94% 29.94 in 10.0 mi Calm Calm - N/A   Mostly Cloudy
4:03 AM 75.2 °F - 71.6 °F 89% 29.95 in 10.0 mi NE 6.9 mph - N/A Thunderstorm Mostly Cloudy
4:17 AM 75.2 °F - 73.4 °F 94% 29.94 in 10.0 mi ENE 4.6 mph - N/A   Overcast
4:53 AM 73.9 °F - 72.0 °F 93% 29.92 in 10.0 mi SSW 5.8 mph - N/A   Clear
5:53 AM 75.0 °F - 72.0 °F 90% 29.91 in 10.0 mi SW 6.9 mph - N/A   Partly Cloudy
6:53 AM 77.0 °F - 73.0 °F 88% 29.91 in 10.0 mi WSW 5.8 mph - N/A   Partly Cloudy
7:53 AM 80.1 °F 85.1 °F 75.0 °F 85% 29.94 in 10.0 mi WNW 6.9 mph - N/A   Mostly Cloudy
8:53 AM 82.0 °F 88.6 °F 75.0 °F 79% 29.95 in 10.0 mi West 6.9 mph - N/A   Clear
9:37 AM 82.4 °F 89.5 °F 75.2 °F 79% 29.95 in 10.0 mi WNW 9.2 mph 16.1 mph N/A   Mostly Cloudy
9:53 AM 82.9 °F 90.2 °F 75.0 °F 77% 29.94 in 10.0 mi WNW 11.5 mph 19.6 mph N/A   Overcast
10:24 AM 82.4 °F 89.5 °F 75.2 °F 79% 29.95 in 10.0 mi WNW 9.2 mph 19.6 mph N/A Thunderstorm Thunderstorm
10:30 AM 78.8 °F - 73.4 °F 83% 29.98 in 1.8 mi NW 24.2 mph 47.2 mph 0.00 in Rain , Thunderstorm Light Thunderstorms and Rain
10:37 AM 71.6 °F - 68.0 °F 88% 29.98 in 0.5 mi NW 11.5 mph 47.2 mph 0.26 in Fog , Rain , Thunderstorm Heavy Thunderstorms and Rain
10:45 AM 71.6 °F - 68.0 °F 88% 29.97 in 1.0 mi NNW 10.4 mph 21.9 mph 0.47 in Rain , Thunderstorm Heavy Thunderstorms and Rain
10:49 AM 71.6 °F - 68.0 °F 88% 29.98 in 2.0 mi NW 8.1 mph 17.3 mph 0.49 in Rain , Thunderstorm Thunderstorms and Rain
10:53 AM 71.1 °F - 68.0 °F 90% 29.97 in 3.0 mi NW 9.2 mph 16.1 mph 0.51 in Rain , Thunderstorm Thunderstorms and Rain
11:02 AM 71.6 °F - 68.0 °F 88% 29.99 in 4.0 mi WNW 10.4 mph 19.6 mph 0.03 in Rain , Thunderstorm Thunderstorms and Rain
11:53 AM 70.0 °F - 68.0 °F 93% 29.89 in 8.0 mi South 4.6 mph - 0.10 in Rain , Thunderstorm Light Thunderstorms and Rain
12:53 PM 70.0 °F - 68.0 °F 93% 29.91 in 10.0 mi WSW 9.2 mph - 0.06 in Rain , Thunderstorm Light Thunderstorms and Rain
1:05 PM 69.8 °F - 68.0 °F 94% 29.92 in 10.0 mi WSW 9.2 mph - 0.01 in Rain , Thunderstorm Light Thunderstorms and Rain
1:22 PM 71.6 °F - 68.0 °F 88% 29.92 in 10.0 mi West 5.8 mph - 0.01 in Thunderstorm Thunderstorm
1:30 PM 71.6 °F - - N/A% 29.92 in 10.0 mi Variable 5.8 mph - 0.01 in   Scattered Clouds
1:53 PM 71.1 °F - - N/A% 29.91 in 10.0 mi Calm Calm - 0.01 in Thunderstorm Scattered Clouds
2:01 PM 71.6 °F - - N/A% 29.92 in 10.0 mi Calm Calm - N/A   Partly Cloudy
2:34 PM 73.4 °F - - N/A% 29.91 in 10.0 mi Calm Calm - N/A   Mostly Cloudy
2:53 PM 75.0 °F - - N/A% 29.89 in 10.0 mi Calm Calm - N/A   Mostly Cloudy
3:15 PM 75.2 °F - - N/A% 29.90 in 10.0 mi Calm Calm - N/A   Mostly Cloudy
3:36 PM 77.0 °F - 73.4 °F 89% 29.90 in 10.0 mi NNW 3.5 mph - N/A   Scattered Clouds
3:53 PM 78.1 °F - 72.0 °F 81% 29.88 in 10.0 mi Calm Calm - N/A   Partly Cloudy
4:53 PM 79.0 °F - 70.0 °F 74% 29.87 in 10.0 mi Calm Calm - N/A   Overcast
5:53 PM 82.0 °F 85.9 °F 70.0 °F 67% 29.88 in 10.0 mi Calm Calm - N/A   Mostly Cloudy
6:53 PM 80.1 °F 83.6 °F 71.1 °F 74% 29.88 in 10.0 mi South 3.5 mph - N/A   Mostly Cloudy
7:53 PM 77.0 °F - 72.0 °F 84% 29.88 in 10.0 mi SSW 3.5 mph - N/A   Mostly Cloudy
8:53 PM 75.9 °F - 72.0 °F 87% 29.87 in 10.0 mi Calm Calm - N/A   Partly Cloudy
9:53 PM 75.9 °F - 72.0 °F 87% 29.89 in 10.0 mi SSW 5.8 mph - N/A   Mostly Cloudy
10:53 PM 75.0 °F - 72.0 °F 90% 29.91 in 10.0 mi SSW 4.6 mph - N/A   Mostly Cloudy
11:09 PM 75.2 °F - 71.6 °F 89% 29.92 in 10.0 mi Calm Calm - N/A Thunderstorm Thunderstorm
11:23 PM 75.2 °F - 71.6 °F 89% 29.91 in 10.0 mi SW 4.6 mph - N/A   Scattered Clouds
11:34 PM 75.2 °F - 71.6 °F 89% 29.90 in 10.0 mi WSW 4.6 mph - N/A Thunderstorm Partly Cloudy
11:53 PM 75.0 °F - 72.0 °F 90% 29.89 in 10.0 mi SW 4.6 mph - N/A Thunderstorm Thunderstorm